Weather History for Auburn, CA

Change the Weather History Date:

Tuesday, March 19, 2013

  Actual Average Record
Temperature  
Mean Temperature 56 °F -  
Max Temperature 64 °F 62 °F 77 °F (1960)
Min Temperature 48 °F 42 °F 33 °F (1963)
Degree Days  
Heating Degree Days 9    
Growing Degree Days 6 (Base 50)    
Moisture  
Dew Point 44 °F    
Average Humidity 62    
Maximum Humidity 94    
Minimum Humidity 40    
Precipitation  
Precipitation 0.10 in - - ()
Sea Level Pressure  
Sea Level Pressure 30.09 in    
Wind  
Wind Speed 4 mph (SE)    
Max Wind Speed 12 mph    
Max Gust Speed 16 mph    
Visibility 9 miles    
Events      
Averages and records for this station are not official NWS values.
T = Trace of Precipitation, MM = Missing Value Source: NWS Daily Summary

Daily Weather History Graph

Daily Weather History Graph

Search for Another Location

Airport:

Trip Planner

Search our weather history database for the weather conditions in past years. The results will help you decide how hot, cold, wet, or windy it might be!

Date:

Astronomy

Mar. 19, 2013 Rise Set
Actual Time 7:08 AM PDT 7:15 PM PDT
Civil Twilight 6:42 AM PDT 7:42 PM PDT
Nautical Twilight 6:11 AM PDT 8:13 PM PDT
Astronomical Twilight 5:39 AM PDT 8:45 PM PDT
Moon 12:06 PM PDT (3/19) 2:03 AM PDT (3/19)
Length of Visible Light 13h 00m
Length of Day
12h 06m
Waxing Crescent, 51% of the Moon is Illuminated
Mar 19
Waxing Crescent
Mar 27
Full
Apr 2
Last Quarter
Apr 10
New
Apr 18
First Quarter

Hourly Weather History & Observations

Time (PDT) Temp. Dew Point Humidity Pressure Visibility Wind Dir Wind Speed Gust Speed Precip Events Conditions
12:15 AM 55.4 °F 44.6 °F 67% 30.10 in 10.0 mi ESE 4.6 mph - N/A   Clear
12:35 AM 55.4 °F 42.8 °F 63% 30.10 in 10.0 mi Calm Calm - N/A   Scattered Clouds
1:15 AM 55.4 °F 42.8 °F 63% 30.09 in 10.0 mi East 6.9 mph - N/A   Scattered Clouds
1:35 AM 55.4 °F 42.8 °F 63% 30.08 in 10.0 mi East 5.8 mph - N/A   Mostly Cloudy
1:55 AM 55.4 °F 42.8 °F 63% 30.08 in 10.0 mi East 5.8 mph - N/A   Mostly Cloudy
2:15 AM 55.4 °F 42.8 °F 63% 30.08 in 10.0 mi East 5.8 mph - N/A   Partly Cloudy
2:35 AM 55.4 °F 42.8 °F 63% 30.08 in 10.0 mi East 6.9 mph - N/A   Clear
3:15 AM 55.4 °F 42.8 °F 63% 30.07 in 10.0 mi East 6.9 mph - N/A   Mostly Cloudy
3:35 AM 55.4 °F 42.8 °F 63% 30.07 in 10.0 mi East 6.9 mph - N/A   Mostly Cloudy
3:55 AM 55.4 °F 42.8 °F 63% 30.06 in 10.0 mi East 4.6 mph - N/A   Mostly Cloudy
4:15 AM 55.4 °F 42.8 °F 63% 30.06 in 10.0 mi East 4.6 mph - N/A   Mostly Cloudy
4:35 AM 55.4 °F 41.0 °F 58% 30.06 in 10.0 mi East 5.8 mph - N/A   Mostly Cloudy
4:55 AM 55.4 °F 41.0 °F 58% 30.06 in 10.0 mi East 3.5 mph - N/A   Overcast
5:15 AM 53.6 °F 39.2 °F 58% 30.06 in 10.0 mi Calm Calm - N/A   Scattered Clouds
5:35 AM 53.6 °F 39.2 °F 58% 30.06 in 10.0 mi ESE 4.6 mph - N/A   Clear
5:55 AM 53.6 °F 39.2 °F 58% 30.05 in 10.0 mi SE 5.8 mph - N/A   Clear
6:15 AM 53.6 °F 41.0 °F 62% 30.05 in 10.0 mi East 9.2 mph - N/A   Clear
6:35 AM 51.8 °F 39.2 °F 62% 30.06 in 10.0 mi East 9.2 mph - N/A   Clear
6:55 AM 53.6 °F 39.2 °F 58% 30.06 in 10.0 mi Calm Calm - N/A   Clear
7:15 AM 53.6 °F 39.2 °F 58% 30.07 in 10.0 mi Calm Calm - N/A   Clear
7:35 AM 48.2 °F 39.2 °F 71% 30.07 in 10.0 mi Calm Calm - N/A   Clear
7:55 AM 51.8 °F 39.2 °F 62% 30.09 in 10.0 mi Calm Calm - N/A   Clear
8:15 AM 53.6 °F 41.0 °F 62% 30.09 in 10.0 mi ESE 5.8 mph - N/A   Clear
8:35 AM 55.4 °F 41.0 °F 58% 30.09 in 10.0 mi ESE 3.5 mph - N/A   Clear
9:15 AM 59.0 °F 42.8 °F 55% 30.11 in 10.0 mi South 3.5 mph - N/A   Clear
9:35 AM 59.0 °F 39.2 °F 48% 30.11 in 10.0 mi Calm Calm - N/A   Clear
9:55 AM 60.8 °F 39.2 °F 45% 30.11 in 10.0 mi Calm Calm - N/A   Clear
10:15 AM 60.8 °F 39.2 °F 45% 30.11 in 10.0 mi SSE 4.6 mph - N/A   Clear
10:35 AM 62.6 °F 41.0 °F 45% 30.12 in 10.0 mi South 6.9 mph - N/A   Clear
10:55 AM 62.6 °F 39.2 °F 42% 30.12 in 10.0 mi South 5.8 mph - N/A   Clear
11:15 AM 62.6 °F 39.2 °F 42% 30.11 in 10.0 mi SE 6.9 mph - N/A   Clear
11:35 AM 62.6 °F 39.2 °F 42% 30.11 in 10.0 mi SSE 4.6 mph - N/A   Clear
11:55 AM 64.4 °F 42.8 °F 45% 30.11 in 10.0 mi South 6.9 mph - N/A   Clear
12:15 PM 64.4 °F 41.0 °F 42% 30.12 in 10.0 mi South 6.9 mph - N/A   Clear
12:35 PM 64.4 °F 39.2 °F 40% 30.12 in 7.0 mi South 6.9 mph - N/A   Clear
1:15 PM 64.4 °F 39.2 °F 40% 30.11 in 10.0 mi SSW 8.1 mph - N/A   Clear
1:35 PM 64.4 °F 41.0 °F 42% 30.11 in 10.0 mi SW 6.9 mph - N/A   Clear
2:15 PM 64.4 °F 39.2 °F 40% 30.10 in 10.0 mi SW 8.1 mph - N/A   Scattered Clouds
2:35 PM 64.4 °F 39.2 °F 40% 30.10 in 10.0 mi SSW 3.5 mph - N/A   Mostly Cloudy
2:55 PM 64.4 °F 39.2 °F 40% 30.09 in 10.0 mi WSW 6.9 mph - N/A   Mostly Cloudy
3:15 PM 64.4 °F 41.0 °F 42% 30.09 in 10.0 mi SSW 4.6 mph - N/A   Mostly Cloudy
3:35 PM 64.4 °F 41.0 °F 42% 30.09 in 10.0 mi Calm Calm - N/A   Scattered Clouds
3:55 PM 62.6 °F 42.8 °F 48% 30.10 in 10.0 mi Calm Calm - N/A   Partly Cloudy
4:15 PM 60.8 °F 46.4 °F 59% 30.10 in 7.0 mi West 4.6 mph - N/A   Mostly Cloudy
4:35 PM 60.8 °F 48.2 °F 63% 30.10 in 10.0 mi Calm Calm - N/A   Mostly Cloudy
4:55 PM 60.8 °F 48.2 °F 63% 30.10 in 10.0 mi Calm Calm - N/A   Mostly Cloudy
5:15 PM 60.8 °F 48.2 °F 63% 30.10 in 10.0 mi Calm Calm - N/A   Mostly Cloudy
5:35 PM 60.8 °F 48.2 °F 63% 30.09 in 10.0 mi Calm Calm - N/A   Mostly Cloudy
5:55 PM 59.0 °F 48.2 °F 67% 30.09 in 10.0 mi Calm Calm - N/A   Partly Cloudy
6:15 PM 59.0 °F 46.4 °F 63% 30.09 in 10.0 mi Calm Calm - N/A   Scattered Clouds
6:35 PM 57.2 °F 48.2 °F 72% 30.10 in 9.0 mi Calm Calm - N/A   Mostly Cloudy
6:55 PM 57.2 °F 48.2 °F 72% 30.09 in 10.0 mi East 4.6 mph - N/A   Mostly Cloudy
7:15 PM 57.2 °F 48.2 °F 72% 30.09 in 10.0 mi East 3.5 mph - N/A   Partly Cloudy
7:35 PM 57.2 °F 48.2 °F 72% 30.09 in 10.0 mi East 4.6 mph - N/A   Mostly Cloudy
7:55 PM 57.2 °F 48.2 °F 72% 30.09 in 10.0 mi Calm Calm - N/A   Overcast
8:15 PM 55.4 °F 50.0 °F 82% 30.11 in 6.0 mi Calm Calm - 0.01 in   Mostly Cloudy
8:35 PM 55.4 °F 51.8 °F 88% 30.11 in 9.0 mi SE 6.9 mph - 0.01 in   Overcast
8:55 PM 55.4 °F 50.0 °F 82% 30.12 in 10.0 mi SSE 9.2 mph - 0.01 in   Mostly Cloudy
9:15 PM 53.6 °F 51.8 °F 94% 30.13 in 5.0 mi South 11.5 mph 16.1 mph 0.01 in   Overcast
9:35 PM 53.6 °F 48.2 °F 82% 30.13 in 5.0 mi South 6.9 mph - 0.03 in   Overcast
9:55 PM 51.8 °F 48.2 °F 88% 30.13 in 5.0 mi SSE 6.9 mph - 0.04 in   Overcast
10:15 PM 51.8 °F 48.2 °F 88% 30.13 in 5.0 mi SE 9.2 mph - 0.01 in   Mostly Cloudy
10:35 PM 50.0 °F 48.2 °F 94% 30.13 in 5.0 mi SE 5.8 mph - 0.03 in   Mostly Cloudy
10:55 PM 50.0 °F 48.2 °F 94% 30.12 in 6.0 mi SE 8.1 mph - 0.03 in   Overcast
11:15 PM 50.0 °F 48.2 °F 94% 30.12 in 5.0 mi SE 8.1 mph - 0.01 in   Overcast
11:35 PM 50.0 °F 48.2 °F 94% 30.12 in 5.0 mi SE 6.9 mph - 0.02 in   Overcast